User: anonymous   Login
Location: Caltech
(34.1382°N, 118.1253°W)
Time: 03:32:31
(UTC-08:00)
Language:

BREEZE M DEB (TANK) - Orbit

View from above orbital plane
View from above orbital plane
View from above satellite
View from above satellite

Ground track
Ground track

The orbit data is extracted from the following two-line orbital elements,

1 33437U 08057B   16342.29099050 +.00001247 +00000-0 +25243-3 0  9993
2 33437 049.5922 050.4495 5004781 296.0048 021.4056 05.59831182163093
Epoch (UTC): 07 December 2016 06:59:01
Eccentricity: 0.5004781
inclination: 49.5922°
perigee height: 314 km
apogee height: 13725 km
right ascension of ascending node: 50.4495°
argument of perigee: 296.0048°
revolutions per day: 5.59831182
mean anomaly at epoch: 21.4056°
orbit number at epoch: 16309

The dashed part of the orbit path shows where the satellite is in the earth's shadow,  

DLR